#timestamp,LO_Frequency,Hit,StdDev 
1708070415.8,286046998.3,P
1708070435.6,286046998.1,P
1708070455.5,286046998.5,N
1708070475.3,286046998.2,N
1708070495.1,286046998.2,N
1708070515.9,286047001.2,N
1708070535.7,286047002.1,N
1708070555.1,286047001.1,N
1708070575.9,286047000.5,N
1708070595.7,286047001.0,N
1708070615.5,286047002.8,N
1708070635.4,286047000.4,N
1708070655.2,286046998.9,N
1708070675.0,286046996.5,N
1708070676.0,286046996.5,N
1708070695.8,286046998.6,N
1708070715.6,286047000.9,N
1708070735.5,286047000.7,N
1708070755.6,286046998.1,N
1708070775.4,286047000.3,N
1708070795.3,286046998.5,N
1708070815.1,286046998.4,N
1708070835.8,286046999.8,N
1708070855.7,286046999.8,N
1708070875.5,286046999.8,N
1708070895.4,286046998.5,N
1708070915.2,286046998.4,N
1708070935.0,286047000.8,N
1708070935.9,286047000.8,N
1708070955.8,286047000.6,N
1708070975.6,286047002.8,N
1708070995.4,286047000.7,N
1708071015.3,286047000.4,N
1708071035.1,286046999.8,N
1708071055.9,286047002.6,N
1708071075.7,286047002.0,N
1708071095.5,286047005.5,Y
1708071115.4,286047003.2,P
1708071135.2,286047003.3,N
1708071155.0,286047003.4,N
1708071156.0,286047003.4,N
1708071175.8,286047005.9,Y
1708071195.6,286047000.0,P
1708071215.5,286047004.3,P
1708071235.3,286046999.7,N
1708071255.1,286047001.0,N
1708071275.9,286046998.8,N
1708071295.7,286046999.6,N
1708071315.6,286046997.9,N
1708071335.4,286046995.3,N
1708071355.2,286046995.1,N
1708071375.1,286046997.6,N
1708071376.0,286046997.6,N
1708071395.8,286046997.5,N
1708071415.6,286046995.4,N
1708071435.5,286046996.7,N
1708071455.7,286046998.6,N
1708071475.5,286046997.0,N
1708071495.4,286046997.1,N
1708071515.2,286046997.6,N
1708071535.0,286046998.0,N
1708071535.9,286046998.0,N
1708071555.8,286046997.9,N
1708071575.6,286046995.8,N
1708071595.4,286046994.0,N
1708071615.3,286046996.2,N
1708071635.1,286046993.6,N
1708071655.9,286046993.8,N
1708071675.7,286046993.3,N
1708071695.5,286046993.9,N
1708071715.4,286046994.7,N
1708071735.2,286046993.6,N
1708071755.0,286046994.5,N
1708071756.0,286046994.5,N
1708071775.8,286046994.7,N
1708071795.6,286046992.3,Y
1708071815.5,286046994.9,P
1708071835.3,286046995.2,P
1708071855.1,286046995.8,P
1708071875.9,286046997.8,Y
1708071895.7,286047002.2,P
1708071915.7,286047001.6,N
1708071935.5,286047001.3,N
1708071955.3,286047002.6,N
1708071975.2,286047001.4,N
1708071995.0,286047003.7,N
1708071995.9,286047003.7,N
1708072015.8,286047005.5,N
1708072035.6,286047005.9,N
1708072055.4,286047002.9,N
1708072075.3,286047003.0,N
1708072095.1,286047005.5,N
1708072115.8,286047002.9,N
1708072135.7,286047005.7,N
1708072155.5,286047003.7,N
1708072175.4,286047004.0,N
1708072195.2,286047002.4,N
1708072215.0,286047001.4,N
1708072215.9,286047001.4,N
1708072235.8,286047001.5,N
1708072255.6,286047004.2,N
1708072275.4,286047003.9,N
1708072295.3,286047002.1,N
1708072315.1,286047000.2,N
1708072335.9,286046999.8,N
1708072355.4,286047002.4,N
1708072375.3,286047001.6,N
1708072395.1,286047000.2,N
1708072415.8,286047001.8,N
1708072435.7,286047002.5,N
1708072455.5,286046999.7,N
1708072475.3,286047002.8,N
1708072495.2,286046999.9,N
1708072515.0,286047001.6,N
1708072516.0,286047001.6,N
1708072535.8,286047001.7,N
1708072555.6,286047004.1,N
1708072575.5,286047004.3,N
1708072595.4,286047001.5,N
1708072615.4,286047002.7,N
1708072635.2,286047001.8,N
1708072655.0,286047001.6,N
1708072655.9,286047001.6,N
1708072675.8,286047000.2,N
1708072695.6,286047000.0,N
1708072715.4,286047000.1,N
1708072735.3,286046999.7,N
1708072755.1,286047002.6,N
1708072775.8,286047000.2,N
1708072795.7,286047000.7,N
1708072815.5,286046998.7,N
1708072835.8,286046998.9,N
1708072855.7,286047001.0,N
1708072875.5,286047000.4,N
1708072895.3,286047002.6,N
1708072915.2,286047002.0,N
1708072935.9,286047002.0,N
1708072955.7,286047002.0,N
1708072975.6,286047001.7,N
1708072995.4,286047002.1,N
1708073015.2,286047001.8,N
1708073035.1,286047005.9,Y
1708073036.0,286047005.9,P
1708073055.2,286047007.2,P
1708073075.0,286047007.7,P
1708073075.9,286047007.7,Y
1708073095.8,286047006.0,P
1708073115.6,286047002.1,P
1708073135.4,286047004.4,N
1708073155.3,286047001.4,N
1708073175.1,286047000.2,N
1708073195.9,286047000.8,N
1708073215.7,286046998.8,N
1708073235.6,286046999.8,N
1708073255.5,286047001.1,N
1708073275.3,286046998.8,N
1708073295.1,286046999.6,N
1708073315.0,286046999.1,N
1708073315.9,286046999.1,N
1708073335.8,286046999.4,N
1708073355.6,286046996.9,N
1708073375.4,286046997.9,N
1708073395.3,286046997.5,N
1708073415.1,286046995.2,N
1708073435.2,286046995.4,N
1708073455.0,286046994.9,N
1708073455.9,286046994.9,N
1708073475.8,286046997.3,N
1708073495.6,286046997.8,N
1708073515.4,286046995.7,N
1708073535.3,286046996.2,N
1708073555.1,286046995.9,N
1708073575.8,286046995.6,N
1708073595.7,286046995.4,N
1708073615.5,286046995.1,N
1708073635.4,286046996.2,N
1708073655.2,286046994.9,N
1708073675.0,286046994.9,N
1708073675.9,286046994.9,N
1708073695.8,286046996.3,N
1708073715.6,286046995.1,N
1708073735.5,286046996.2,N
1708073755.3,286046993.8,Y
1708073775.1,286046996.9,P
1708073795.9,286046996.6,P
1708073815.7,286046997.2,P
1708073835.5,286046997.2,Y
1708073855.4,286047000.0,P
1708073875.2,286046998.6,N
1708073895.1,286047001.2,N
1708073896.0,286047001.2,N
1708073915.8,286047000.9,N
1708073935.6,286047001.8,N
1708073955.5,286047003.2,N
1708073975.3,286047006.6,Y
1708073995.2,286047010.2,P
